Location: Central Falls
(41.8900°N, 71.3929°W)
Time: 14:33:55
(UTC+00:00)

Vanguard 1 Rocket - Pass Details

Date: 07 December 2023
Orbit: 654 x 4218 km, 34.3° (Epoch: 24 February)

Event Time Altitude Azimuth Distance (km) Brightness Sun altitude
Rises 06:42:23 0° 208° (SSW) 8,321 - -57.5°
Reaches altitude 10° 06:49:09 10° 200° (SSW) 7,407 - -56.3°
Exits shadow 07:01:09 27° 177° (S) 5,886 11.2 -54.3°
Maximum altitude 07:10:07 34° 146° (SE) 5,106 11.0 -52.7°
Drops below altitude 10° 07:25:35 10° 90° (E) 5,583 11.8 -50.0°
Sets 07:29:38 0° 81° (E) 6,152 12.3 -49.2°
